AEST,Max TemperatureF,Mean TemperatureF,Min TemperatureF,Max Dew PointF,MeanDew PointF,Min DewpointF,Max Humidity, Mean Humidity, Min Humidity, Max Sea Level PressureIn, Mean Sea Level PressureIn, Min Sea Level PressureIn, Max VisibilityMiles, Mean VisibilityMiles, Min VisibilityMiles, Max Wind SpeedMPH, Mean Wind SpeedMPH, Max Gust SpeedMPH,PrecipitationIn, CloudCover, Events, WindDirDegrees
2013-9-1,84,76,69,63,60,57,78,60,31,30.17,30.10,30.04,19,7,6,30,15,,0.00,2,,154
2013-9-2,82,76,69,66,62,57,83,64,40,30.20,30.13,30.09,19,7,4,25,15,33,0.04,4,Rain,146
2013-9-3,78,72,66,67,62,55,94,70,45,30.19,30.12,30.06,19,6,2,26,21,36,0.12,4,Rain,146
2013-9-4,80,72,64,65,61,52,94,73,32,30.18,30.13,30.09,19,6,2,34,20,43,0.51,5,Rain,146
2013-9-5,80,72,64,64,60,50,94,70,31,30.18,30.13,30.09,19,6,3,31,19,45,0.16,4,Rain,157
2013-9-6,80,72,64,66,61,50,94,76,27,30.18,30.12,30.06,19,6,3,28,16,33,0.08,4,Rain,161
2013-9-7,80,73,66,65,62,59,89,70,42,30.16,30.11,30.06,19,6,4,24,15,,0.02,4,Rain,159
2013-9-8,80,73,66,65,62,57,94,73,39,30.15,30.10,30.04,19,7,4,20,13,,0.24,5,Rain,169
2013-9-9,80,72,65,66,63,59,100,75,42,30.12,30.04,29.95,19,6,3,17,10,,0.01,5,Rain,154
2013-9-10,82,74,67,68,64,61,94,72,48,30.04,29.97,29.89,19,7,6,14,7,,0.00,2,,106
2013-9-11,84,73,62,72,66,59,100,81,39,30.04,29.96,29.89,19,7,6,15,4,,0.00,1,,52
2013-9-12,83,74,64,70,66,63,100,81,48,30.05,29.98,29.92,19,7,4,12,3,,0.00,1,Fog,23
2013-9-13,80,70,59,68,65,61,100,80,52,30.05,29.96,29.89,19,6,1,10,3,,0.00,1,Fog,43
2013-9-14,83,73,63,68,65,63,100,74,48,30.03,29.96,29.89,19,7,6,13,6,,0.00,2,Fog,128
2013-9-15,84,74,64,68,65,63,94,74,46,30.01,29.95,29.89,19,7,6,16,8,,0.00,2,,113
2013-9-16,82,73,64,66,64,61,100,74,46,29.98,29.90,29.83,19,7,6,15,7,,0.00,1,,91
2013-9-17,82,73,64,70,67,64,100,79,54,29.92,29.85,29.77,19,7,6,14,4,,0.00,1,,1
2013-9-18,84,78,73,72,71,68,94,79,54,29.91,29.84,29.80,16,6,4,10,5,,0.00,3,Rain,352
2013-9-19,82,74,67,70,69,67,100,80,52,29.94,29.88,29.80,16,7,5,12,5,,0.00,1,Fog,353
2013-9-20,82,73,64,72,66,59,100,79,39,29.95,29.88,29.80,12,6,4,12,5,,0.00,1,,332
2013-9-21,84,74,64,70,67,63,100,80,48,29.93,29.85,29.80,19,6,6,12,4,,0.00,2,,352
2013-9-22,82,72,63,70,67,63,100,77,53,29.93,29.87,29.80,19,7,6,14,5,,0.00,3,,103
2013-9-23,84,74,65,68,66,64,94,74,48,30.00,29.94,29.89,19,7,6,13,5,,0.00,1,,114
2013-9-24,83,74,65,68,65,63,100,74,40,30.03,29.96,29.92,19,7,4,13,4,,0.00,1,,58
2013-9-25,82,72,61,65,63,61,100,75,43,30.04,29.98,29.92,19,8,6,13,4,,0.00,1,Fog,349
2013-9-26,82,72,61,64,62,59,100,73,38,30.05,29.99,29.92,19,8,6,13,3,,0.00,1,Fog,5
2013-9-27,83,72,61,67,64,61,100,76,41,30.02,29.97,29.89,19,7,6,13,4,,0.00,1,Fog,1
2013-9-28,84,74,63,69,66,64,100,77,48,30.00,29.95,29.89,19,7,5,13,3,,0.00,1,,28
2013-9-29,84,75,66,70,67,66,100,75,45,29.99,29.94,29.89,19,7,6,14,5,,0.00,1,,101
2013-9-30,86,77,68,67,66,61,94,67,33,30.04,29.97,29.92,19,7,6,17,9,,0.00,2,,137